Location: La Comballaz
(46.3780°N, 7.0817°E)
Time: 14:05:30
(UTC+00:00)

IRIDIUM 104 - Pass Details

Date: 09 April 2020
Orbit: 776 x 779 km, 86.4° (Epoch: 02 June)

Event Time Altitude Azimuth Distance (km) Brightness Sun altitude
Rises 18:38:20 0° 357° (N) 3,275 7.9 -5.3°
Reaches altitude 10° 18:40:42 10° 359° (N) 2,343 7.1 -5.6°
Maximum altitude 18:45:57 79° 86° (E) 799 4.3 -6.5°
Drops below altitude 10° 18:51:10 10° 174° (S) 2,323 6.5 -7.4°
Sets 18:53:30 0° 175° (S) 3,246 7.3 -7.7°
